This is the latest recevied weather packets stored in our database for station/object KB1RMA-13. If no packets are shown the sender has not sent any weather packets the latest 10 day(s).
| Time | Temp. | Humidity | Pressure | Rain* | Wind** | Luminosity | Snow |
|---|---|---|---|---|---|---|---|
| 1777847281 | 11.11° C | 41% | 1006.5 hPa | 0 mm | - | 49 W/m² | - |
| 1777846979 | 11.67° C | 40% | 1006.3 hPa | 0 mm | - | 126 W/m² | - |
| 1777846677 | 11.67° C | 40% | 1006.5 hPa | 0 mm | - | 177 W/m² | - |
| 1777846375 | 11.11° C | 44% | 1006.5 hPa | 0 mm | - | 108 W/m² | - |
| 1777846071 | 11.11° C | 42% | 1006.2 hPa | 0 mm | - | 101 W/m² | - |
| 1777845768 | 11.11° C | 44% | 1006.3 hPa | 0 mm | - | 93 W/m² | - |
| 1777845465 | 11.11° C | 44% | 1006.1 hPa | 0 mm | - | 92 W/m² | - |
| 1777845162 | 11.11° C | 47% | 1005.8 hPa | 0 mm | - | 102 W/m² | - |
| 1777844860 | 11.11° C | 44% | 1006 hPa | 0 mm | - | 81 W/m² | - |
| 1777844556 | 11.11° C | 43% | 1006 hPa | 0 mm | - | 84 W/m² | - |
| 1777844255 | 11.11° C | 43% | 1005.8 hPa | 0 mm | - | 96 W/m² | - |
| 1777843952 | 12.22° C | 44% | 1005.9 hPa | 0 mm | - | 172 W/m² | - |
| 1777843648 | 11.11° C | 48% | 1005.8 hPa | 0 mm | - | 93 W/m² | - |
| 1777843346 | 11.11° C | 42% | 1006 hPa | 0 mm | - | 73 W/m² | - |
| 1777843043 | 11.11° C | 41% | 1005.6 hPa | 0 mm | - | 92 W/m² | - |
| 1777842739 | 11.67° C | 41% | 1005.3 hPa | 0 mm | - | 145 W/m² | - |
| 1777842435 | 11.67° C | 43% | 1005.4 hPa | 0 mm | - | 226 W/m² | - |
| 1777842133 | 11.11° C | 42% | 1005.4 hPa | 0 mm | - | 117 W/m² | - |
| 1777841828 | 11.11° C | 46% | 1005.3 hPa | 0 mm | - | 92 W/m² | - |
| 1777841524 | 11.11° C | 45% | 1005.3 hPa | 0 mm | - | 88 W/m² | - |
| 1777841221 | 11.11° C | 46% | 1005.3 hPa | 0 mm | - | 87 W/m² | - |
| 1777840919 | 11.67° C | 44% | 1005.3 hPa | 0 mm | - | 135 W/m² | - |
| 1777840615 | 11.67° C | 45% | 1005.2 hPa | 0 mm | - | 381 W/m² | - |
| 1777840313 | 11.67° C | 45% | 1005.1 hPa | 0 mm | - | 187 W/m² | - |
| 1777840010 | 11.67° C | 44% | 1005.5 hPa | 0 mm | - | 155 W/m² | - |
* Rain latest hour (hover to see other rain measurements)
** Current wind speed in m/s (hover to see current wind gust speed)